Moline, IL
on Friday, September 27, 2013

Friday
Previous Day Next Day
Daily Summary
 ActualAverageRecord
Temperature
Mean Temperature °F 60°F  
Max Temperature 84°F 72°F 90°F (1990)
Min Temperature 52°F 49°F 33°F (1989)
Degree Days
Heating Degree Days 0 6  
Month to date heating degree days 55 75  
Since 1 July heating degree days 66 83  
Cooling Degree Days 3 2  
Month to date cooling degree days 155 103  
Year to date cooling degree days 969 986  
Growing Degree Days18 (Base °F )  
Moisture
Dew Point 51°F   
Average Humidity 62    
Maximum Humidity 89    
Minimum Humidity 34    
Precipitation
Precipitation 0.00 in 0.10 in 2.05 in (1999)
Month to date precipitation 0.88 2.83  
Year to date precipitation 33.49 29.99  
Snow
Snow 0.00 in 0.00 in in ()
Month to date snowfall 0.0 0.0  
Since 1 July snowfall 0.0 0.0  
Since 1 September snowfall 0.0 0.0  
Snow Depth 0.00 in   
Wind
Wind Speed 7 mph   
Max Wind Speed 16 mph   
Max Gust Speed 22 mph   
Visibility 10 miles   
Events     

Key: T is trace of precipitation, MM is missing value
Source: NWS Daily Summary
Time(CDT)TemperatureDew PointHumidity Pressure Visibility Wind DirectionWind SpeedGust SpeedPrecipitationEvents Conditions
12:52 AM 57.9°F 48.9°F 72% 30.04 in 10.0 miles Calm Calm - N/A   Clear
1:52 AM 55.0°F 48.0°F 77% 30.05 in 10.0 miles ESE 4.6 mph - N/A   Clear
2:52 AM 55.9°F 48.0°F 75% 30.05 in 10.0 miles ENE 4.6 mph - N/A   Clear
3:52 AM 55.0°F 48.0°F 77% 30.06 in 10.0 miles ENE 4.6 mph - N/A   Clear
4:52 AM 54.0°F 48.0°F 80% 30.06 in 10.0 miles East 4.6 mph - N/A   Clear
5:52 AM 52.0°F 48.0°F 86% 30.08 in 10.0 miles Calm Calm - N/A   Partly Cloudy
6:52 AM 54.0°F 48.9°F 83% 30.10 in 10.0 miles Calm Calm - N/A   Mostly Cloudy
7:52 AM 57.9°F 50.0°F 75% 30.11 in 10.0 miles East 4.6 mph - N/A   Partly Cloudy
8:52 AM 66.0°F 51.1°F 59% 30.10 in 10.0 miles SE 4.6 mph - N/A   Clear
9:52 AM 73.0°F 55.0°F 53% 30.09 in 10.0 miles SSE 9.2 mph - N/A   Clear
10:52 AM 77.0°F 57.9°F 52% 30.08 in 10.0 miles SSE 10.4 mph - N/A   Clear
11:52 AM 80.1°F 59.0°F 48% 30.07 in 10.0 miles SE 10.4 mph - N/A   Clear
12:52 PM 82.0°F 57.9°F 44% 30.05 in 10.0 miles SSE 12.7 mph 17.3 mph N/A   Clear
1:52 PM 82.9°F 55.0°F 38% 30.03 in 10.0 miles South 15.0 mph 19.6 mph N/A   Clear
2:52 PM 82.9°F 54.0°F 37% 30.01 in 10.0 miles SSE 12.7 mph 19.6 mph N/A   Clear
3:52 PM 82.9°F 51.1°F 33% 29.99 in 10.0 miles SSE 11.5 mph - N/A   Clear
4:52 PM 82.0°F 51.1°F 34% 29.99 in 10.0 miles SSE 11.5 mph - N/A   Clear
5:52 PM 79.0°F 51.1°F 38% 29.99 in 10.0 miles SE 8.1 mph - N/A   Clear
6:52 PM 73.0°F 51.1°F 46% 29.99 in 10.0 miles SE 3.5 mph - N/A   Clear
7:52 PM 66.9°F 51.1°F 57% 30.00 in 10.0 miles SE 6.9 mph - N/A   Clear
8:52 PM 64.9°F 48.9°F 56% 30.01 in 10.0 miles SE 8.1 mph - N/A   Clear
9:52 PM 64.9°F 48.0°F 54% 30.01 in 10.0 miles SE 6.9 mph - N/A   Clear
10:52 PM 64.0°F 48.0°F 56% 30.01 in 10.0 miles SSE 9.2 mph - N/A   Clear
11:52 PM 63.0°F 48.9°F 60% 30.00 in 10.0 miles SE 6.9 mph - N/A   Clear
Astronomy
Sunrise:06:54 AM (CDT) Moon Rise:No Moon Rise/
Sunset:06:50 PM (CDT) Moon Set:02:32 PM (CDT)9/27
Moon Phase
Sep. 27 Oct. 05 Oct. 11 Oct. 18 Oct. 26

Copyright © 2015 The Weather Underground, Inc.















  Today is Monday, Nov. 17, the 321st day of 2014. There are 44 days left in the year.

1864 -- 150 years ago: The ferry landing has been moved a little downstream because of the increase of sandbars above and opposite the old landing place.
1889 -- 125 years ago: Ben Eden purchased the Union Meat Market at 207 20th St.
1914 -- 100 years ago: Washington dispatches declared the bad effects of war upon trade had ended, a restoration of credit balance with Europe relieving the situation.
1939 -- 75 years ago: The maintenance foreman on the Iowa Illinois Memorial Bridge between Moline and Bettendorf lost his life when he slipped and fell into the Mississippi River.
1964 -- 50 years ago: The Black Hawk College Board of Education last night formally expressed appreciation for a proposed gift of 44 acres of land for a building site but could not take any other action until after a Nov. 24 stockholders meeting of the donor company.
1989 -- 25 years ago: A Rock Island County committee has approved a jail inmate phone service that could bring the county an additional $30,000 to $40,000 a year.